TimeMDT,TemperatureF,Dew PointF,Humidity,Sea Level PressureIn,VisibilityMPH,Wind Direction,Wind SpeedMPH,Gust SpeedMPH,PrecipitationIn,Events,Conditions,WindDirDegrees,DateUTC
12:55 AM,36.5,14.2,40,30.20,10.0,Calm,Calm,-,N/A,,Clear,0,2012-10-06 06:55:00
1:55 AM,32.4,14.7,48,30.23,10.0,ESE,8.1,-,N/A,,Clear,110,2012-10-06 07:55:00
2:55 AM,32.4,15.1,49,30.25,10.0,East,4.6,-,N/A,,Clear,90,2012-10-06 08:55:00
3:55 AM,31.1,16.3,54,30.26,10.0,ESE,6.9,-,N/A,,Clear,120,2012-10-06 09:55:00
4:55 AM,35.6,18.3,50,30.24,10.0,SE,12.7,-,N/A,,Clear,130,2012-10-06 10:55:00
5:55 AM,35.6,18.3,50,30.26,10.0,ESE,15.0,-,N/A,,Clear,120,2012-10-06 11:55:00
6:55 AM,35.1,17.8,49,30.28,10.0,SE,10.4,-,N/A,,Clear,130,2012-10-06 12:55:00
7:55 AM,32.5,17.6,54,30.31,10.0,SE,10.4,-,N/A,,Clear,140,2012-10-06 13:55:00
8:55 AM,37.8,16.9,43,30.33,10.0,SE,12.7,-,N/A,,Clear,140,2012-10-06 14:55:00
9:55 AM,42.8,16.5,35,30.33,10.0,SE,13.8,19.6,N/A,,Clear,140,2012-10-06 15:55:00
10:55 AM,47.1,16.2,29,30.32,10.0,ESE,21.9,-,N/A,,Clear,120,2012-10-06 16:55:00
11:55 AM,50.4,16.0,26,30.31,10.0,ESE,15.0,-,N/A,,Clear,120,2012-10-06 17:55:00
12:55 PM,53.8,16.0,23,30.29,10.0,ESE,13.8,-,N/A,,Clear,110,2012-10-06 18:55:00
1:55 PM,55.4,15.3,21,30.25,10.0,ESE,6.9,-,N/A,,Clear,110,2012-10-06 19:55:00
2:55 PM,56.7,15.1,20,30.23,10.0,Variable,3.5,-,N/A,,Clear,0,2012-10-06 20:55:00
3:55 PM,58.5,15.4,19,30.21,10.0,Calm,Calm,-,N/A,,Clear,0,2012-10-06 21:55:00
4:55 PM,60.3,15.6,18,30.18,10.0,Calm,Calm,-,N/A,,Clear,0,2012-10-06 22:55:00
5:55 PM,59.9,14.4,17,30.16,10.0,Calm,Calm,-,N/A,,Clear,0,2012-10-06 23:55:00
6:55 PM,57.7,13.3,17,30.17,10.0,NW,4.6,-,N/A,,Clear,310,2012-10-07 00:55:00
7:55 PM,46.9,14.5,27,30.20,10.0,WNW,8.1,-,N/A,,Clear,290,2012-10-07 01:55:00
8:55 PM,48.9,15.1,26,30.20,10.0,North,3.5,-,N/A,,Clear,350,2012-10-07 02:55:00
9:55 PM,45.1,14.4,29,30.19,10.0,North,3.5,-,N/A,,Clear,350,2012-10-07 03:55:00
10:55 PM,41.0,12.9,32,30.19,10.0,Calm,Calm,-,N/A,,Clear,0,2012-10-07 04:55:00
11:55 PM,34.5,11.7,39,30.20,10.0,Calm,Calm,-,N/A,,Clear,0,2012-10-07 05:55:00